Airfield :
LOGIN :

Register | Disclaimer

   EN    FR    IT 

 










Legend :    VFR   Marginal VFR   IFR   Intensive IFR   Very Intensive IFR
Visi :
Ceiling :
>= 8 km
>= 3000ft
5 to 8 km
1000 to 3000 ft
1500m to 5 km
500 to 1000 ft
800 to 1500m
200 to 500 ft
< 800m
< 200 ft
Symbols :   Thunderstorms  Fog  Heavy snow  Heavy precipitations  Wind > 20 kt
SIGMETs :     Misc.  Thunderstorms  Icing  Turbulence  Mountain Waves  Volcanic Ashes







- Airport Elevation : 256 ft
- IATA code : CFR
- Download approach charts


LFRK - Caen

CURRENT METAR :
  • 202000Z AUTO 31004KT 7000 NSC 13/10 Q1023 NOSIG

EXPIRED METARs :
  • 201930Z AUTO 33003KT CAVOK 14/10 Q1023 NOSIG
  • 201900Z AUTO 34003KT CAVOK 16/10 Q1022 NOSIG
  • 201830Z AUTO 01003KT CAVOK 17/10 Q1022 NOSIG
  • 201800Z AUTO 01005KT CAVOK 18/11 Q1022 NOSIG
  • 201730Z AUTO 36005KT 330V030 CAVOK 20/12 Q1022 NOSIG

TAF TAF LFRK
Valid from the 20 at 15:00 until the 21 at 00:00 UTC


201400Z 2015/2024 01008KT CAVOK
BECMG 2018/2021 VRB03KT
Met : +33 2 31 26 68 11
No reported NOTAMs for that airfield.



MET'MAP, your aeronautical weather chart ! - Copyright ORBIFLY December 2007 - Disclaimer

ORBIFLY MET'MAP TEAM :

Programming & Development : Alexandra Zaïnal
Concept & Development : Baudouin d'Aumeries
Co-Development & Prog : Marc-Olivier Méhu
Technical & hardware support : Manuel Goepfert

Contact : metmap@orbifly.com




SOURCES & CREDITS :

   NOAA